M I D A S
Marine Information and Data Acquisition System
Tripno 1085 of the Zeeleeuw from 2006-05-17 11:36:38 to 2006-05-17 14:26:43
Back to CruiseResearch ActivitiesStationsMapUnderway DataData graphs

EquipmentUnitsComments
TimeDGPSUTC
LatitudeDGPSDM.mWGS84
LongitudeDGPSDM.mWGS84
SpeedMeteo Stationm/sRelative wind speed
DirectionMeteo StationdegRelative wind direction
TemperatureMeteo Stationdeg CelciusAir temperature
PressureMeteo StationPaAtmospheric pressure
HumidityMeteo Station%Relative humidity
Missing or incorrect values are displayed as -999
Metereological data collected by the RV Zeeleeuw from 2006-05-17 07:17:38 to 2006-05-17 14:41:29
Time Latitude Longitude Speed Direction Temperature Pressure Humidity
2006-05-17 07:18 51°13.603 2°56.099 -999 36 11.4 101950 98
2006-05-17 07:19 51°13.603 2°56.099 -999 60 11.5 101950 98
2006-05-17 07:20 51°13.604 2°56.099 -999 90 11.5 101950 98
2006-05-17 07:21 51°13.603 2°56.098 -999 84 11.5 101960 98
2006-05-17 07:22 51°13.603 2°56.098 -999 135 11.5 101960 98
2006-05-17 07:23 51°13.603 2°56.098 -999 113 11.5 101960 98
2006-05-17 07:24 51°13.603 2°56.099 -999 112 11.4 101960 98
2006-05-17 07:25 51°13.602 2°56.099 -999 89 11.4 101960 98
2006-05-17 07:26 51°13.601 2°56.098 -999 135 11.5 101960 98
2006-05-17 07:27 51°13.608 2°56.065 -999 121 11.5 101960 98
2006-05-17 07:28 51°13.628 2°55.975 -999 130 11.5 101950 98
2006-05-17 07:29 51°13.658 2°55.886 -999 139 11.4 101950 97
2006-05-17 07:30 51°13.697 2°55.799 -999 131 11.4 101950 98
2006-05-17 07:31 51°13.719 2°55.742 -999 98 11.5 101960 98
2006-05-17 07:32 51°13.726 2°55.754 -999 168 11.5 101960 98
2006-05-17 07:33 51°13.714 2°55.733 -999 259 11.6 101960 98
2006-05-17 07:34 51°13.759 2°55.696 -999 273 11.7 101960 98
2006-05-17 07:35 51°13.845 2°55.618 -999 295 11.8 101960 97
2006-05-17 07:36 51°13.936 2°55.546 -999 269 11.8 101970 97
2006-05-17 07:37 51°14.019 2°55.487 -999 251 11.9 101960 97
2006-05-17 07:38 51°14.116 2°55.422 -999 275 11.9 101970 97
2006-05-17 07:39 51°14.231 2°55.318 -999 315 12 101960 97
2006-05-17 07:40 51°14.325 2°55.142 -999 338 12.1 101960 97
2006-05-17 07:41 51°14.404 2°54.939 -999 325 12.1 101960 96
2006-05-17 07:42 51°14.466 2°54.663 -999 327 12 101960 96
2006-05-17 07:43 51°14.533 2°54.337 -999 334 12 101950 96
2006-05-17 07:44 51°14.618 2°53.999 -999 326 11.9 101950 96
2006-05-17 07:45 51°14.69 2°53.652 -999 331 11.9 101960 96
2006-05-17 07:46 51°14.77 2°53.309 -999 342 11.8 101950 96
2006-05-17 07:47 51°14.747 2°52.952 -999 344 11.8 101940 96
2006-05-17 07:48 51°14.72 2°52.585 -999 335 11.8 101930 96
2006-05-17 07:49 51°14.688 2°52.224 -999 340 11.7 101950 96
2006-05-17 07:50 51°14.662 2°51.867 -999 334 11.7 101940 96
2006-05-17 07:51 51°14.641 2°51.494 -999 338 11.7 101940 96
2006-05-17 07:52 51°14.596 2°51.129 -999 338 11.7 101940 96
2006-05-17 07:53 51°14.57 2°50.764 -999 339 11.7 101950 96
2006-05-17 07:54 51°14.527 2°50.396 -999 335 11.7 101950 96
2006-05-17 07:55 51°14.482 2°50.022 -999 341 11.7 101950 96
2006-05-17 07:56 51°14.406 2°49.673 -999 343 11.8 101940 96
2006-05-17 07:57 51°14.336 2°49.307 -999 334 11.8 101950 96
2006-05-17 07:58 51°14.259 2°48.964 -999 340 11.7 101950 96
2006-05-17 07:59 51°14.163 2°48.616 -999 341 11.8 101950 96
2006-05-17 08:00 51°14.077 2°48.35 -999 341 11.7 101950 96
2006-05-17 08:01 51°14.025 2°48.18 -999 329 11.7 101950 96
2006-05-17 08:02 51°13.985 2°48.068 -999 321 11.6 101960 96
2006-05-17 08:03 51°13.976 2°48.043 -999 288 11.7 101960 96
2006-05-17 08:04 51°13.97 2°48.033 -999 284 11.7 101960 96
2006-05-17 08:05 51°13.964 2°48.019 -999 284 11.8 101970 96
2006-05-17 08:06 51°13.959 2°48.003 -999 271 11.8 101970 96
2006-05-17 08:07 51°13.954 2°47.984 -999 261 11.9 101970 96
2006-05-17 08:08 51°13.949 2°47.963 -999 253 11.9 101970 96
2006-05-17 08:09 51°13.945 2°47.939 -999 255 12 101970 96
2006-05-17 08:10 51°13.941 2°47.914 -999 258 12 101970 95
2006-05-17 08:11 51°13.939 2°47.883 -999 258 12 101960 95
2006-05-17 08:12 51°13.99 2°47.79 -999 243 11.9 101970 95
2006-05-17 08:13 51°14.067 2°47.781 -999 125 12 101970 95
2006-05-17 08:14 51°14.106 2°47.832 -999 108 12 101970 95
2006-05-17 08:15 51°14.137 2°47.896 -999 111 11.9 101970 95
2006-05-17 08:16 51°14.171 2°47.955 -999 111 11.9 101970 95
2006-05-17 08:17 51°14.209 2°48.008 -999 131 11.9 101960 95
2006-05-17 08:18 51°14.244 2°48.059 -999 123 11.9 101970 95
2006-05-17 08:19 51°14.273 2°48.117 -999 118 11.9 101960 95
2006-05-17 08:20 51°14.299 2°48.182 -999 113 11.9 101960 95
2006-05-17 08:21 51°14.325 2°48.242 -999 105 11.9 101960 95
2006-05-17 08:22 51°14.354 2°48.296 -999 109 11.8 101960 95
2006-05-17 08:23 51°14.385 2°48.356 -999 107 11.9 101960 95
2006-05-17 08:24 51°14.415 2°48.414 -999 112 11.9 101960 96
2006-05-17 08:25 51°14.446 2°48.475 -999 113 11.9 101960 96
2006-05-17 08:26 51°14.475 2°48.534 -999 100 11.8 101960 96
2006-05-17 08:27 51°14.503 2°48.596 -999 108 11.8 101960 95
2006-05-17 08:28 51°14.529 2°48.66 -999 107 11.9 101960 96
2006-05-17 08:29 51°14.553 2°48.728 -999 107 11.9 101960 96
2006-05-17 08:30 51°14.578 2°48.789 -999 114 11.9 101960 96
2006-05-17 08:31 51°14.603 2°48.854 -999 113 11.9 101960 95
2006-05-17 08:32 51°14.628 2°48.918 -999 111 11.9 101950 96
2006-05-17 08:33 51°14.655 2°48.988 -999 120 11.9 101950 95
2006-05-17 08:34 51°14.683 2°49.061 -999 116 11.8 101950 95
2006-05-17 08:35 51°14.709 2°49.135 -999 113 11.8 101960 95
2006-05-17 08:36 51°14.734 2°49.21 -999 129 11.9 101960 95
2006-05-17 08:37 51°14.759 2°49.284 -999 115 11.9 101960 95
2006-05-17 08:38 51°14.785 2°49.359 -999 114 12 101960 95
2006-05-17 08:39 51°14.809 2°49.43 -999 119 12.1 101960 95
2006-05-17 08:40 51°14.831 2°49.499 -999 114 12.1 101960 95
2006-05-17 08:41 51°14.854 2°49.565 -999 118 12.1 101950 95
2006-05-17 08:42 51°14.88 2°49.63 -999 113 12.1 101960 94
2006-05-17 08:43 51°14.908 2°49.694 -999 121 12.2 101950 95
2006-05-17 08:44 51°14.937 2°49.754 -999 120 12.3 101950 95
2006-05-17 08:45 51°14.968 2°49.814 -999 131 12.3 101950 95
2006-05-17 08:46 51°14.996 2°49.878 -999 111 12.3 101950 94
2006-05-17 08:47 51°15.004 2°49.978 -999 83 12.4 101950 94
2006-05-17 08:48 51°14.952 2°50.054 -999 41 12.3 101940 93
2006-05-17 08:49 51°14.868 2°50.046 -999 6 12.3 101940 94
2006-05-17 08:50 51°14.805 2°49.946 -999 340 12.4 101940 94
2006-05-17 08:51 51°14.763 2°49.82 -999 328 12.4 101930 93
2006-05-17 08:52 51°14.715 2°49.741 -999 1 12.5 101940 93
2006-05-17 08:53 51°14.674 2°49.699 -999 10 12.6 101940 93
2006-05-17 08:54 51°14.642 2°49.665 -999 25 12.7 101940 93
2006-05-17 08:55 51°14.615 2°49.638 -999 29 12.7 101940 92
2006-05-17 08:56 51°14.547 2°49.65 -999 33 12.7 101930 92
2006-05-17 08:57 51°14.418 2°49.696 -999 26 12.7 101930 93
2006-05-17 08:58 51°14.275 2°49.641 -999 350 12.7 101930 92
2006-05-17 08:59 51°14.164 2°49.46 -999 337 12.8 101920 92
2006-05-17 09:00 51°14.099 2°49.314 -999 323 12.9 101930 91
2006-05-17 09:01 51°14.087 2°49.159 -999 282 13 101930 91
2006-05-17 09:02 51°14.127 2°49.053 -999 223 13 101940 91
2006-05-17 09:03 51°14.18 2°49.031 -999 150 13.1 101940 91
2006-05-17 09:04 51°14.231 2°49.061 -999 142 13.1 101940 90
2006-05-17 09:05 51°14.282 2°49.082 -999 152 13.1 101940 90
2006-05-17 09:06 51°14.328 2°49.097 -999 161 13.2 101940 90
2006-05-17 09:07 51°14.371 2°49.121 -999 139 13.1 101940 89
2006-05-17 09:08 51°14.408 2°49.169 -999 121 13.1 101940 89
2006-05-17 09:09 51°14.442 2°49.226 -999 119 13.1 101930 89
2006-05-17 09:10 51°14.473 2°49.282 -999 121 13.2 101940 89
2006-05-17 09:11 51°14.504 2°49.341 -999 117 13.2 101940 89
2006-05-17 09:12 51°14.537 2°49.395 -999 120 13.2 101940 89
2006-05-17 09:13 51°14.569 2°49.448 -999 129 13.3 101940 89
2006-05-17 09:14 51°14.602 2°49.503 -999 113 13.3 101940 89
2006-05-17 09:15 51°14.631 2°49.56 -999 121 13.3 101940 89
2006-05-17 09:16 51°14.659 2°49.618 -999 115 13.3 101940 89
2006-05-17 09:17 51°14.688 2°49.672 -999 124 13.3 101940 89
2006-05-17 09:18 51°14.719 2°49.726 -999 111 13.3 101940 89
2006-05-17 09:19 51°14.75 2°49.784 -999 121 13.4 101940 88
2006-05-17 09:20 51°14.772 2°49.847 -999 117 13.4 101940 88
2006-05-17 09:21 51°14.795 2°49.913 -999 120 13.4 101930 88
2006-05-17 09:22 51°14.82 2°49.978 -999 126 13.4 101940 87
2006-05-17 09:23 51°14.844 2°50.042 -999 114 13.5 101930 88
2006-05-17 09:24 51°14.866 2°50.107 -999 109 13.5 101930 87
2006-05-17 09:25 51°14.876 2°50.179 -999 107 13.6 101930 87
2006-05-17 09:26 51°14.87 2°50.253 -999 77 13.6 101930 86
2006-05-17 09:27 51°14.826 2°50.321 -999 41 13.5 101930 86
2006-05-17 09:28 51°14.749 2°50.344 -999 16 13.5 101920 86
2006-05-17 09:29 51°14.677 2°50.298 -999 343 13.6 101920 87
2006-05-17 09:30 51°14.633 2°50.196 -999 302 13.7 101920 86
2006-05-17 09:31 51°14.634 2°50.091 -999 249 13.8 101920 86
2006-05-17 09:32 51°14.661 2°50.027 -999 198 13.9 101930 86
2006-05-17 09:33 51°14.681 2°49.995 -999 181 14 101920 86
2006-05-17 09:34 51°14.692 2°49.971 -999 175 14.1 101930 84
2006-05-17 09:35 51°14.7 2°49.95 -999 148 14 101920 83
2006-05-17 09:36 51°14.73 2°50.034 -999 53 14 101920 83
2006-05-17 09:37 51°14.771 2°50.286 -999 42 13.9 101910 84
2006-05-17 09:38 51°14.791 2°50.577 -999 39 13.7 101910 85
2006-05-17 09:39 51°14.809 2°50.878 -999 38 13.6 101910 85
2006-05-17 09:40 51°14.811 2°51.186 -999 38 13.6 101910 85
2006-05-17 09:41 51°14.808 2°51.484 -999 39 13.6 101910 85
2006-05-17 09:42 51°14.787 2°51.778 -999 48 13.6 101910 86
2006-05-17 09:43 51°14.771 2°52.098 -999 36 13.7 101910 86
2006-05-17 09:44 51°14.746 2°52.402 -999 35 13.8 101920 85
2006-05-17 09:45 51°14.727 2°52.702 -999 39 13.9 101920 85
2006-05-17 09:46 51°14.701 2°53.004 -999 40 13.9 101920 84
2006-05-17 09:47 51°14.685 2°53.318 -999 47 14 101920 84
2006-05-17 09:48 51°14.643 2°53.614 -999 33 14 101920 83
2006-05-17 09:49 51°14.61 2°53.942 -999 43 14.1 101920 83
2006-05-17 09:50 51°14.569 2°54.256 -999 38 14.2 101920 81
2006-05-17 09:51 51°14.526 2°54.564 -999 36 14.3 101910 80
2006-05-17 09:52 51°14.449 2°54.852 -999 41 14.4 101910 79
2006-05-17 09:53 51°14.338 2°55.123 -999 14 14.6 101910 78
2006-05-17 09:54 51°14.241 2°55.286 -999 24 14.9 101900 76
2006-05-17 09:55 51°14.165 2°55.384 -999 39 15 101910 75
2006-05-17 09:56 51°14.094 2°55.451 -999 18 15.2 101910 74
2006-05-17 09:57 51°14.019 2°55.502 -999 8 15.2 101910 74
2006-05-17 09:58 51°13.924 2°55.566 -999 11 15.3 101910 74
2006-05-17 09:59 51°13.823 2°55.636 -999 12 15.4 101910 74
2006-05-17 10:00 51°13.74 2°55.714 -999 30 15.4 101900 74
2006-05-17 10:01 51°13.682 2°55.819 -999 54 15.4 101900 72
2006-05-17 10:02 51°13.647 2°55.91 -999 32 15.5 101910 73
2006-05-17 10:03 51°13.622 2°55.98 -999 29 15.5 101910 72
2006-05-17 10:04 51°13.606 2°56.052 -999 59 15.5 101910 72
2006-05-17 10:05 51°13.604 2°56.091 -999 102 15.4 101910 72
2006-05-17 10:06 51°13.602 2°56.096 -999 69 15.6 101920 72
2006-05-17 10:07 51°13.602 2°56.099 -999 77 15.7 101920 71
2006-05-17 10:08 51°13.602 2°56.097 -999 47 15.8 101920 70
2006-05-17 10:09 51°13.602 2°56.098 -999 50 15.9 101920 69
2006-05-17 10:10 51°13.603 2°56.098 -999 83 15.9 101920 69
2006-05-17 10:11 51°13.603 2°56.098 -999 9 15.9 101920 70
2006-05-17 10:12 51°13.603 2°56.098 -999 59 16 101920 69
2006-05-17 10:13 51°13.603 2°56.097 -999 20 16.1 101910 69
2006-05-17 10:14 51°13.603 2°56.097 -999 23 16.2 101910 70
2006-05-17 10:15 51°13.603 2°56.098 -999 75 16.2 101920 68
2006-05-17 10:16 51°13.603 2°56.098 -999 47 16.2 101910 67
2006-05-17 10:17 51°13.603 2°56.097 -999 28 16.3 101910 67
2006-05-17 10:18 51°13.603 2°56.097 -999 98 16.4 101910 67
2006-05-17 10:19 51°13.602 2°56.097 -999 45 16.5 101910 67
2006-05-17 10:20 51°13.603 2°56.098 -999 89 16.4 101910 67
2006-05-17 10:21 51°13.603 2°56.098 -999 51 16.3 101910 67
2006-05-17 10:22 51°13.603 2°56.099 -999 38 16.3 101900 67
2006-05-17 10:23 51°13.603 2°56.099 -999 7 16.3 101900 67
2006-05-17 10:24 51°13.603 2°56.099 -999 5 16.5 101900 67
2006-05-17 10:25 51°13.604 2°56.099 -999 35 16.5 101900 68
2006-05-17 10:26 51°13.604 2°56.099 -999 53 16.6 101890 68
2006-05-17 10:27 51°13.603 2°56.099 -999 65 16.5 101900 68
2006-05-17 10:28 51°13.604 2°56.099 -999 87 16.6 101890 68
2006-05-17 10:29 51°13.603 2°56.099 -999 71 16.6 101890 67
2006-05-17 10:30 51°13.604 2°56.099 -999 103 16.6 101890 66
2006-05-17 10:31 51°13.604 2°56.099 -999 119 16.6 101890 66
2006-05-17 10:32 51°13.605 2°56.099 -999 104 16.7 101890 66
2006-05-17 10:33 51°13.604 2°56.099 -999 92 16.8 101890 66
2006-05-17 10:34 51°13.604 2°56.098 -999 134 16.9 101880 66
2006-05-17 10:35 51°13.604 2°56.099 -999 51 17 101880 66
2006-05-17 10:36 51°13.605 2°56.099 -999 56 17.1 101880 65
2006-05-17 10:37 51°13.605 2°56.099 -999 61 17.1 101880 65
2006-05-17 10:38 51°13.605 2°56.099 -999 36 17.2 101880 66
2006-05-17 10:39 51°13.603 2°56.098 -999 145 17.3 101880 65
2006-05-17 10:40 51°13.603 2°56.098 -999 129 17.4 101880 64
2006-05-17 10:41 51°13.604 2°56.098 -999 44 17.5 101880 64
2006-05-17 10:42 51°13.606 2°56.099 -999 61 17.5 101880 63
2006-05-17 10:43 51°13.603 2°56.097 -999 98 17.3 101880 63
2006-05-17 10:44 51°13.603 2°56.097 -999 109 17.2 101870 64
2006-05-17 10:45 51°13.603 2°56.098 -999 107 17.2 101870 64
2006-05-17 10:46 51°13.603 2°56.098 -999 119 17.3 101870 64
2006-05-17 10:47 51°13.603 2°56.098 -999 107 17.3 101870 64
2006-05-17 10:48 51°13.603 2°56.098 -999 24 17.4 101860 64
2006-05-17 10:49 51°13.603 2°56.098 -999 24 17.4 101860 63
2006-05-17 10:50 51°13.605 2°56.099 -999 49 17.4 101860 63
2006-05-17 10:51 51°13.603 2°56.098 -999 50 17.4 101850 63
2006-05-17 10:52 51°13.605 2°56.099 -999 47 17.4 101850 63
2006-05-17 10:53 51°13.603 2°56.098 -999 73 17.3 101840 63
2006-05-17 10:54 51°13.603 2°56.098 -999 43 17.2 101840 64
2006-05-17 10:55 51°13.604 2°56.099 -999 44 17.2 101840 64
2006-05-17 10:56 51°13.605 2°56.1 -999 47 17.3 101840 67
2006-05-17 10:57 51°13.605 2°56.1 -999 50 17.4 101840 65
2006-05-17 10:58 51°13.605 2°56.1 -999 49 17.4 101840 64
2006-05-17 10:59 51°13.604 2°56.1 -999 43 17.5 101840 63
2006-05-17 11:00 51°13.604 2°56.099 -999 44 17.6 101840 61
2006-05-17 11:01 51°13.603 2°56.099 -999 19 17.5 101840 62
2006-05-17 11:02 51°13.603 2°56.098 -999 79 17.5 101830 61
2006-05-17 11:03 51°13.603 2°56.098 -999 95 17.6 101830 62
2006-05-17 11:04 51°13.602 2°56.098 -999 112 17.6 101830 62
2006-05-17 11:05 51°13.602 2°56.098 -999 80 17.6 101830 62
2006-05-17 11:06 51°13.603 2°56.098 -999 122 17.6 101830 62
2006-05-17 11:07 51°13.601 2°56.097 -999 81 17.6 101830 63
2006-05-17 11:08 51°13.602 2°56.098 -999 58 17.7 101830 62
2006-05-17 11:09 51°13.602 2°56.098 -999 13 17.8 101830 61
2006-05-17 11:10 51°13.602 2°56.099 -999 26 17.9 101830 59
2006-05-17 11:11 51°13.602 2°56.098 -999 46 17.9 101830 60
2006-05-17 11:12 51°13.602 2°56.098 -999 39 17.9 101830 60
2006-05-17 11:13 51°13.603 2°56.099 -999 80 17.9 101840 59
2006-05-17 11:14 51°13.603 2°56.099 -999 29 17.8 101840 60
2006-05-17 11:15 51°13.603 2°56.099 -999 14 17.8 101830 61
2006-05-17 11:16 51°13.603 2°56.099 -999 46 17.9 101830 61
2006-05-17 11:17 51°13.602 2°56.099 -999 25 18 101830 59
2006-05-17 11:18 51°13.603 2°56.099 -999 45 18.1 101820 60
2006-05-17 11:19 51°13.602 2°56.1 -999 24 18.1 101820 58
2006-05-17 11:20 51°13.602 2°56.101 -999 40 18.1 101810 59
2006-05-17 11:21 51°13.602 2°56.101 -999 37 18.2 101820 63
2006-05-17 11:22 51°13.601 2°56.101 -999 16 18.1 101820 58
2006-05-17 11:23 51°13.6 2°56.1 -999 90 18.2 101820 59
2006-05-17 11:24 51°13.604 2°56.071 -999 119 18.3 101820 58
2006-05-17 11:25 51°13.617 2°55.988 -999 112 18.3 101820 56
2006-05-17 11:26 51°13.651 2°55.883 -999 80 18.2 101820 57
2006-05-17 11:27 51°13.695 2°55.781 -999 43 18.2 101810 56
2006-05-17 11:28 51°13.712 2°55.759 -999 103 18.3 101810 56
2006-05-17 11:29 51°13.71 2°55.743 -999 97 18.3 101800 56
2006-05-17 11:30 51°13.737 2°55.737 -999 171 18.3 101800 56
2006-05-17 11:31 51°13.804 2°55.662 -999 295 18.4 101810 57
2006-05-17 11:32 51°13.929 2°55.558 -999 293 18.6 101800 57
2006-05-17 11:33 51°14.066 2°55.469 -999 239 18.8 101800 55
2006-05-17 11:34 51°14.171 2°55.389 -999 240 18.9 101800 55
2006-05-17 11:35 51°14.274 2°55.259 -999 282 18.8 101800 54
2006-05-17 11:36 51°14.359 2°55.063 -999 340 18.9 101790 55
2006-05-17 11:37 51°14.438 2°54.83 -999 307 18.9 101780 55
2006-05-17 11:38 51°14.524 2°54.554 -999 306 18.7 101770 56
2006-05-17 11:39 51°14.607 2°54.219 -999 327 18.5 101780 56
2006-05-17 11:40 51°14.682 2°53.889 -999 318 18.4 101770 57
2006-05-17 11:41 51°14.717 2°53.534 -999 326 18.3 101770 57
2006-05-17 11:42 51°14.723 2°53.169 -999 323 18.1 101750 57
2006-05-17 11:43 51°14.719 2°52.806 -999 327 18 101760 59
2006-05-17 11:44 51°14.724 2°52.449 -999 331 17.9 101760 59
2006-05-17 11:45 51°14.685 2°52.08 -999 323 17.7 101750 58
2006-05-17 11:46 51°14.659 2°51.712 -999 322 17.6 101750 56
2006-05-17 11:47 51°14.634 2°51.342 -999 320 17.7 101750 58
2006-05-17 11:48 51°14.603 2°50.978 -999 330 17.6 101750 60
2006-05-17 11:49 51°14.569 2°50.607 -999 333 17.5 101760 62
2006-05-17 11:50 51°14.513 2°50.235 -999 325 17.5 101750 59
2006-05-17 11:51 51°14.464 2°49.866 -999 333 17.5 101760 61
2006-05-17 11:52 51°14.394 2°49.512 -999 345 17.5 101760 63
2006-05-17 11:53 51°14.316 2°49.157 -999 333 17.4 101750 63
2006-05-17 11:54 51°14.231 2°48.807 -999 336 17.4 101750 62
2006-05-17 11:55 51°14.15 2°48.458 -999 329 17.4 101740 62
2006-05-17 11:56 51°14.08 2°48.212 -999 319 17.3 101740 62
2006-05-17 11:57 51°14.026 2°48.067 -999 326 17.3 101740 63
2006-05-17 11:58 51°14 2°48.003 -999 301 17.3 101750 63
2006-05-17 11:59 51°13.995 2°47.997 -999 280 17.3 101750 62
2006-05-17 12:00 51°13.989 2°47.987 -999 277 17.4 101750 62
2006-05-17 12:01 51°13.984 2°47.973 -999 275 17.5 101750 62
2006-05-17 12:02 51°13.979 2°47.957 -999 256 17.4 101750 62
2006-05-17 12:03 51°13.975 2°47.937 -999 256 17.3 101750 63
2006-05-17 12:04 51°13.972 2°47.914 -999 255 17.2 101750 61
2006-05-17 12:05 51°13.98 2°47.863 -999 239 17.2 101750 62
2006-05-17 12:06 51°14.047 2°47.797 -999 168 17.3 101750 62
2006-05-17 12:07 51°14.114 2°47.844 -999 111 17.4 101750 62
2006-05-17 12:08 51°14.142 2°47.925 -999 102 17.4 101750 62
2006-05-17 12:09 51°14.153 2°48.003 -999 97 17.2 101740 63
2006-05-17 12:10 51°14.155 2°48.083 -999 83 17.2 101740 62
2006-05-17 12:11 51°14.151 2°48.159 -999 94 17.2 101750 61
2006-05-17 12:12 51°14.148 2°48.239 -999 98 17.3 101750 61
2006-05-17 12:13 51°14.15 2°48.315 -999 105 17.3 101750 62
2006-05-17 12:14 51°14.158 2°48.392 -999 101 17.3 101750 60
2006-05-17 12:15 51°14.171 2°48.465 -999 112 17.5 101750 57
2006-05-17 12:16 51°14.19 2°48.532 -999 119 17.6 101750 59
2006-05-17 12:17 51°14.211 2°48.6 -999 120 17.6 101750 60
2006-05-17 12:18 51°14.231 2°48.673 -999 119 17.6 101750 60
2006-05-17 12:19 51°14.251 2°48.744 -999 129 17.5 101750 58
2006-05-17 12:20 51°14.277 2°48.813 -999 129 17.6 101750 55
2006-05-17 12:21 51°14.305 2°48.881 -999 131 17.8 101760 56
2006-05-17 12:22 51°14.338 2°48.943 -999 131 17.8 101750 58
2006-05-17 12:23 51°14.378 2°49 -999 133 17.8 101750 59
2006-05-17 12:24 51°14.415 2°49.058 -999 121 17.7 101750 59
2006-05-17 12:25 51°14.446 2°49.122 -999 117 17.7 101750 59
2006-05-17 12:26 51°14.477 2°49.191 -999 124 17.7 101750 58
2006-05-17 12:27 51°14.509 2°49.258 -999 117 17.8 101750 59
2006-05-17 12:28 51°14.543 2°49.32 -999 121 17.7 101750 59
2006-05-17 12:29 51°14.58 2°49.383 -999 127 17.7 101750 60
2006-05-17 12:30 51°14.618 2°49.441 -999 124 17.7 101760 61
2006-05-17 12:31 51°14.661 2°49.499 -999 135 17.7 101760 61
2006-05-17 12:32 51°14.701 2°49.557 -999 117 17.7 101760 60
2006-05-17 12:33 51°14.733 2°49.627 -999 110 17.7 101750 61
2006-05-17 12:34 51°14.759 2°49.702 -999 106 17.7 101750 59
2006-05-17 12:35 51°14.783 2°49.783 -999 122 17.7 101740 60
2006-05-17 12:36 51°14.803 2°49.866 -999 125 17.6 101750 60
2006-05-17 12:37 51°14.812 2°49.956 -999 86 17.6 101740 60
2006-05-17 12:38 51°14.798 2°50.06 -999 66 17.6 101730 60
2006-05-17 12:39 51°14.759 2°50.155 -999 53 17.5 101720 60
2006-05-17 12:40 51°14.703 2°50.211 -999 16 17.8 101700 57
2006-05-17 12:41 51°14.631 2°50.215 -999 355 18 101710 57
2006-05-17 12:42 51°14.569 2°50.208 -999 10 18.2 101710 55
2006-05-17 12:43 51°14.531 2°50.217 -999 32 18.3 101700 55
2006-05-17 12:44 51°14.509 2°50.231 -999 41 18.3 101700 57
2006-05-17 12:45 51°14.493 2°50.25 -999 38 18 101700 58
2006-05-17 12:46 51°14.429 2°50.266 -999 346 17.9 101700 60
2006-05-17 12:47 51°14.376 2°50.169 -999 43 18 101700 58
2006-05-17 12:48 51°14.361 2°50.054 -999 299 18 101700 59
2006-05-17 12:49 51°14.357 2°49.939 -999 295 18 101700 59
2006-05-17 12:50 51°14.357 2°49.847 -999 293 18.1 101690 56
2006-05-17 12:51 51°14.36 2°49.767 -999 284 18.2 101690 57
2006-05-17 12:52 51°14.356 2°49.695 -999 297 18.3 101690 57
2006-05-17 12:53 51°14.344 2°49.626 -999 296 18.3 101690 57
2006-05-17 12:54 51°14.325 2°49.559 -999 310 18.4 101690 54
2006-05-17 12:55 51°14.303 2°49.489 -999 227 18.5 101690 56
2006-05-17 12:56 51°14.28 2°49.422 -999 314 18.5 101680 55
2006-05-17 12:57 51°14.252 2°49.36 -999 328 18.5 101680 56
2006-05-17 12:58 51°14.223 2°49.304 -999 332 18.5 101670 55
2006-05-17 12:59 51°14.192 2°49.249 -999 327 18.5 101670 56
2006-05-17 13:00 51°14.162 2°49.194 -999 323 18.5 101670 57
2006-05-17 13:01 51°14.133 2°49.134 -999 316 18.4 101670 57
2006-05-17 13:02 51°14.104 2°49.076 -999 321 18.4 101670 58
2006-05-17 13:03 51°14.074 2°49.015 -999 323 18.3 101660 58
2006-05-17 13:04 51°14.046 2°48.954 -999 324 18.3 101670 58
2006-05-17 13:05 51°14.019 2°48.893 -999 321 18.3 101670 58
2006-05-17 13:06 51°13.992 2°48.833 -999 320 18.3 101670 57
2006-05-17 13:07 51°13.965 2°48.77 -999 226 18.4 101670 57
2006-05-17 13:08 51°13.938 2°48.71 -999 314 18.5 101670 57
2006-05-17 13:09 51°13.91 2°48.65 -999 330 18.5 101670 58
2006-05-17 13:10 51°13.882 2°48.592 -999 332 18.5 101670 57
2006-05-17 13:11 51°13.856 2°48.537 -999 334 18.5 101670 56
2006-05-17 13:12 51°13.828 2°48.474 -999 334 18.4 101660 54
2006-05-17 13:13 51°13.8 2°48.416 -999 337 18.4 101660 55
2006-05-17 13:14 51°13.771 2°48.356 -999 332 18.5 101660 55
2006-05-17 13:15 51°13.741 2°48.297 -999 331 18.5 101660 56
2006-05-17 13:16 51°13.713 2°48.234 -999 319 18.6 101650 55
2006-05-17 13:17 51°13.688 2°48.173 -999 319 18.6 101650 54
2006-05-17 13:18 51°13.662 2°48.116 -999 326 18.7 101650 53
2006-05-17 13:19 51°13.637 2°48.056 -999 319 18.8 101650 54
2006-05-17 13:20 51°13.611 2°47.996 -999 325 18.8 101650 54
2006-05-17 13:21 51°13.583 2°47.934 -999 316 18.8 101650 55
2006-05-17 13:22 51°13.556 2°47.871 -999 316 18.8 101650 54
2006-05-17 13:23 51°13.528 2°47.811 -999 327 18.8 101650 56
2006-05-17 13:24 51°13.497 2°47.748 -999 317 18.7 101650 55
2006-05-17 13:25 51°13.47 2°47.689 -999 325 18.6 101650 56
2006-05-17 13:26 51°13.44 2°47.631 -999 324 18.5 101640 55
2006-05-17 13:27 51°13.413 2°47.575 -999 320 18.5 101650 53
2006-05-17 13:28 51°13.386 2°47.511 -999 317 18.5 101640 55
2006-05-17 13:29 51°13.363 2°47.45 -999 314 18.6 101650 55
2006-05-17 13:30 51°13.341 2°47.383 -999 43 18.5 101650 56
2006-05-17 13:31 51°13.321 2°47.319 -999 299 18.5 101650 54
2006-05-17 13:32 51°13.301 2°47.256 -999 44 18.6 101650 56
2006-05-17 13:33 51°13.281 2°47.19 -999 228 18.4 101650 57
2006-05-17 13:34 51°13.261 2°47.126 -999 313 18.5 101650 57
2006-05-17 13:35 51°13.241 2°47.063 -999 316 18.4 101650 59
2006-05-17 13:36 51°13.222 2°47.001 -999 315 18.4 101650 59
2006-05-17 13:37 51°13.215 2°46.917 -999 288 18.3 101650 59
2006-05-17 13:38 51°13.26 2°46.834 -999 239 18.3 101640 58
2006-05-17 13:39 51°13.342 2°46.847 -999 132 18.3 101650 59
2006-05-17 13:40 51°13.393 2°46.971 -999 82 18.3 101650 59
2006-05-17 13:41 51°13.394 2°47.119 -999 60 18.2 101640 59
2006-05-17 13:42 51°13.389 2°47.265 -999 75 18.2 101630 59
2006-05-17 13:43 51°13.409 2°47.386 -999 113 18.2 101640 58
2006-05-17 13:44 51°13.441 2°47.471 -999 128 18.3 101640 58
2006-05-17 13:45 51°13.472 2°47.54 -999 133 18.3 101640 57
2006-05-17 13:46 51°13.502 2°47.603 -999 124 18.4 101640 57
2006-05-17 13:47 51°13.535 2°47.676 -999 109 18.5 101640 58
2006-05-17 13:48 51°13.573 2°47.809 -999 85 18.4 101640 58
2006-05-17 13:49 51°13.612 2°47.931 -999 107 18.3 101640 59
2006-05-17 13:50 51°13.656 2°48.018 -999 139 18.2 101640 59
2006-05-17 13:51 51°13.696 2°48.083 -999 149 18.2 101640 60
2006-05-17 13:52 51°13.732 2°48.135 -999 154 18.1 101640 58
2006-05-17 13:53 51°13.768 2°48.186 -999 149 18.2 101630 57
2006-05-17 13:54 51°13.802 2°48.236 -999 140 18.3 101630 57
2006-05-17 13:55 51°13.832 2°48.282 -999 139 18.3 101630 58
2006-05-17 13:56 51°13.862 2°48.332 -999 132 18.3 101630 57
2006-05-17 13:57 51°13.888 2°48.38 -999 124 18.4 101630 58
2006-05-17 13:58 51°13.913 2°48.429 -999 110 18.3 101630 58
2006-05-17 13:59 51°13.936 2°48.473 -999 121 18.3 101630 59
2006-05-17 14:00 51°13.959 2°48.52 -999 116 18.2 101630 58
2006-05-17 14:01 51°13.98 2°48.565 -999 120 18.2 101630 58
2006-05-17 14:02 51°14.001 2°48.611 -999 111 18.3 101630 58
2006-05-17 14:03 51°14.022 2°48.657 -999 100 18.3 101630 58
2006-05-17 14:04 51°14.042 2°48.705 -999 97 18.3 101620 56
2006-05-17 14:05 51°14.06 2°48.767 -999 87 18.5 101630 54
2006-05-17 14:06 51°14.078 2°48.841 -999 92 18.6 101620 55
2006-05-17 14:07 51°14.097 2°48.927 -999 97 18.5 101620 57
2006-05-17 14:08 51°14.118 2°49.019 -999 104 18.5 101620 57
2006-05-17 14:09 51°14.149 2°49.137 -999 104 18.4 101620 55
2006-05-17 14:10 51°14.188 2°49.292 -999 82 18.4 101610 57
2006-05-17 14:11 51°14.252 2°49.578 -999 63 18.4 101600 56
2006-05-17 14:12 51°14.325 2°49.913 -999 62 18.3 101600 57
2006-05-17 14:13 51°14.402 2°50.272 -999 68 18.3 101600 56
2006-05-17 14:14 51°14.475 2°50.628 -999 49 18.5 101590 56
2006-05-17 14:15 51°14.548 2°50.982 -999 50 18.3 101600 57
2006-05-17 14:16 51°14.629 2°51.348 -999 60 18.4 101590 56
2006-05-17 14:17 51°14.694 2°51.719 -999 50 18.4 101590 56
2006-05-17 14:18 51°14.753 2°52.074 -999 49 18.5 101590 56
2006-05-17 14:19 51°14.795 2°52.446 -999 53 18.6 101590 55
2006-05-17 14:20 51°14.837 2°52.831 -999 50 18.7 101590 55
2006-05-17 14:21 51°14.84 2°53.186 -999 47 18.8 101580 53
2006-05-17 14:22 51°14.801 2°53.565 -999 51 19 101570 53
2006-05-17 14:23 51°14.762 2°53.918 -999 53 19 101570 53
2006-05-17 14:24 51°14.708 2°54.267 -999 43 19.1 101580 51
2006-05-17 14:25 51°14.604 2°54.586 -999 39 19.2 101570 51
2006-05-17 14:26 51°14.477 2°54.858 -999 27 19.4 101550 49
2006-05-17 14:27 51°14.34 2°55.113 -999 39 19.6 101560 49
2006-05-17 14:28 51°14.241 2°55.295 -999 32 19.8 101580 50
2006-05-17 14:29 51°14.151 2°55.396 -999 24 19.9 101580 48
2006-05-17 14:30 51°14.066 2°55.458 -999 21 20 101580 49
2006-05-17 14:31 51°13.974 2°55.521 -999 4 20.1 101580 49
2006-05-17 14:32 51°13.875 2°55.591 -999 21 20.1 101570 48
2006-05-17 14:33 51°13.785 2°55.665 -999 12 20.2 101570 49
2006-05-17 14:34 51°13.734 2°55.744 -999 28 20.2 101570 49
2006-05-17 14:35 51°13.699 2°55.816 -999 32 20.2 101550 47
2006-05-17 14:36 51°13.662 2°55.895 -999 26 20.1 101540 47
2006-05-17 14:37 51°13.628 2°55.977 -999 28 20.2 101540 46
2006-05-17 14:38 51°13.61 2°56.045 -999 55 20.2 101540 46
2006-05-17 14:39 51°13.602 2°56.089 -999 80 20.2 101550 47
2006-05-17 14:40 51°13.602 2°56.096 -999 70 20.2 101550 46